|
NORAD ID: 33885 Int'l Code: 1997-051BE
Perigee: 636.4 km
Apogee: 657.1 km
Inclination: 86.4 °
Period: 97.5 minutes
Semi major axis: 7017 km
Launch date: September 14, 1997
Source: United States (US)
Note: This is SATELLITE DEBRIS
Two Line Element Set (TLE):
1 33885U 97051BE 13141.16436223 .00058692 00000-0 82997-2 0 613
2 33885 086.3812 176.7064 0014706 176.7071 247.9349 14.76746109225164
Source:
NASA's NSSDC Master Catalog entry for IRIDIUM 33 DEB
|